1506452400.57,52703,15.75,74726.5,-0.05,-20.99,-20.49,0,*5B
1506452401.84,52704,15.75,74728.8,-0.05,-20.99,-20.53,0,*57
1506452403.07,52705,15.75,74726.0,-0.07,-20.99,-20.59,0,*5E
1506452404.34,52706,15.75,74720.0,-0.05,-20.99,-20.53,0,*55
1506452405.6,52707,15.75,74724.3,-0.05,-20.99,-20.63,0,*57
1506452406.81,52708,15.75,74726.3,-0.05,-21.09,-20.69,0,*5A
1506452408.09,52709,15.75,74724.0,-0.05,-20.83,-20.53,0,*51
1506452409.31,52710,15.75,74728.3,-0.03,-20.93,-20.53,0,*5E
1506452410.53,52711,15.69,74724.8,-0.05,-21.09,-20.69,0,*52
1506452411.78,52712,15.75,74726.5,-0.05,-20.99,-20.63,0,*53
1506452413.03,52713,15.75,74724.0,-0.05,-20.99,-20.63,0,*52
1506452414.25,52714,15.75,74726.3,-0.05,-21.13,-20.69,0,*5C
1506452415.49,52715,15.75,74726.5,-0.05,-20.99,-20.69,0,*5E
1506452416.74,52716,15.75,74722.3,-0.05,-20.99,-20.63,0,*57
1506452417.99,52717,15.75,74722.5,-0.03,-20.83,-20.53,0,*58
1506452419.18,52718,15.75,74724.0,-0.03,-21.09,-20.69,0,*5D
1506452420.38,52719,15.75,74724.0,-0.03,-21.13,-20.69,0,*57
1506452421.59,52720,15.75,74724.5,-0.01,-21.09,-20.73,0,*5F
1506452422.79,52721,15.75,74728.0,-0.03,-20.93,-20.69,0,*55
1506452423.98,52722,15.75,74724.3,-0.03,-21.13,-20.69,0,*5F
1506452425.18,52723,15.75,74720.8,-0.03,-20.93,-20.63,0,*5D
1506452426.42,52724,15.75,74724.5,-0.03,-20.79,-20.53,0,*5D
1506452427.61,52725,15.75,74724.0,-0.03,-20.93,-20.69,0,*51
1506452428.84,52726,15.75,74730.3,-0.01,-20.89,-20.59,0,*58
1506452430.11,52727,15.75,74728.0,-0.01,-21.03,-20.79,0,*58
1506452431.33,52728,15.75,74734.5,-0.01,-21.09,-20.73,0,*57
1506452432.54,52729,15.75,74730.0,0.01,-20.93,-20.79,0,*73
1506452433.79,52730,15.75,74728.0,-0.01,-21.03,-20.73,0,*54
1506452435.03,52731,15.75,74730.8,-0.01,-21.09,-20.79,0,*55
1506452436.25,52732,15.75,74730.3,-0.01,-20.89,-20.73,0,*55
1506452437.48,52733,15.75,74726.5,-0.01,-20.89,-20.59,0,*5C
1506452438.73,52734,15.75,74728.8,-0.01,-21.03,-20.63,0,*51
1506452439.98,52735,15.75,74728.0,-0.03,-20.99,-20.79,0,*5B
1506452441.2,52736,15.75,74730.8,-0.03,-20.83,-20.63,0,*58
1506452442.39,52737,15.75,74726.3,-0.03,-20.93,-20.69,0,*52
1506452443.62,52738,15.75,74730.5,-0.01,-20.93,-20.63,0,*55
1506452444.83,52739,15.75,74728.5,-0.03,-20.99,-20.69,0,*56
1506452446.06,52740,15.75,74728.5,-0.01,-20.89,-20.63,0,*51
1506452447.28,52741,15.75,74726.5,-0.03,-20.79,-20.63,0,*5D
1506452448.53,52742,15.75,74720.8,-0.01,-20.73,-20.49,0,*5E
1506452449.76,52743,15.75,74724.3,-0.01,-20.89,-20.63,0,*52
1506452450.98,52744,15.75,74722.5,-0.01,-20.73,-20.59,0,*59
1506452452.23,52745,15.75,74722.3,-0.01,-20.79,-20.63,0,*5B
1506452453.45,52746,15.75,74720.3,-0.01,-20.89,-20.73,0,*56
1506452454.64,52747,15.75,74724.5,0.01,-20.93,-20.73,0,*71
1506452455.83,52748,15.75,74722.0,0.01,-20.93,-20.73,0,*7E
1506452457.03,52749,15.75,74720.8,0.01,-20.89,-20.63,0,*75
1506452458.26,52750,15.75,74726.5,0.01,-21.03,-20.79,0,*75
1506452459.47,52751,15.75,74728.8,0.01,-20.93,-20.79,0,*7C
1506452460.68,52752,15.75,74722.0,0.01,-20.93,-20.79,0,*7F
1506452461.87,52753,15.75,74722.3,0.01,-21.13,-20.93,0,*73
1506452463.09,52754,15.75,74724.0,0.01,-21.03,-20.89,0,*7E
1506452464.31,52755,15.75,74720.3,0.01,-21.03,-20.93,0,*74
1506452465.53,52756,15.75,74724.3,0.01,-21.03,-20.89,0,*7C
1506452466.75,52757,15.75,74720.5,0.01,-21.03,-20.89,0,*7D
1506452467.98,52758,15.75,74724.3,0.01,-21.03,-20.89,0,*72
1506452469.17,52759,15.75,74722.5,0.01,-20.93,-20.89,0,*7B
1506452470.38,52760,15.75,74724.5,0.01,-20.93,-20.79,0,*7E
1506452471.6,52761,15.75,74728.5,0.01,-21.03,-20.73,0,*7D
1506452472.78,52762,15.75,74730.3,0.01,-21.09,-20.93,0,*7A
1506452474.01,52763,15.75,74726.8,0.01,-21.03,-20.89,0,*7A
1506452475.2,52764,15.75,74728.5,0.01,-20.93,-20.89,0,*75
1506452476.42,52765,15.75,74728.0,0.01,-21.03,-20.93,0,*77
1506452477.61,52766,15.75,74724.0,0.01,-20.93,-20.89,0,*77
1506452478.83,52767,15.75,74724.5,0.05,-20.89,-20.83,0,*73
1506452480.03,52768,15.75,74730.5,0.01,-20.89,-20.89,0,*72
1506452481.22,52769,15.75,74724.8,0.01,-20.89,-20.93,0,*78
1506452482.42,52770,15.75,74726.3,0.05,-20.89,-20.89,0,*7F
1506452483.64,52771,15.75,74724.0,0.01,-20.79,-20.73,0,*70
1506452484.85,52772,15.75,74724.3,0.01,-20.89,-20.79,0,*76
1506452486.09,52773,15.75,74724.8,0.01,-21.03,-21.03,0,*78
1506452487.27,52774,15.75,74722.5,0.05,-20.73,-20.69,0,*70
1506452488.46,52775,15.75,74724.0,0.01,-20.89,-20.93,0,*75
1506452489.68,52776,15.75,74724.8,0.01,-20.89,-20.79,0,*72
1506452490.92,52777,15.75,74726.3,0.05,-20.83,-20.83,0,*78
1506452492.11,52778,15.75,74730.3,0.01,-20.93,-20.89,0,*78
1506452493.3,52779,15.75,74726.0,0.01,-20.93,-20.93,0,*72
1506452494.49,52780,15.75,74726.3,0.01,-20.89,-20.93,0,*7F
1506452495.73,52781,15.75,74722.0,0.05,-20.83,-20.83,0,*71
1506452497.0,52782,15.75,74726.0,-0.01,-20.79,-20.79,0,*5B
1506452498.23,52783,15.75,74726.3,0.01,-20.79,-20.79,0,*77
1506452499.45,52784,15.75,74720.3,0.01,-20.79,-20.89,0,*7F
1506452500.68,52785,15.75,74722.3,0.01,-20.79,-20.79,0,*71
1506452501.88,52786,15.75,74716.5,0.01,-20.89,-20.89,0,*72
1506452503.1,52787,15.75,74722.0,0.01,-20.79,-20.89,0,*7C
1506452504.29,52788,15.75,74722.0,0.01,-20.69,-20.73,0,*77
1506452505.47,52789,15.75,74724.0,0.01,-20.69,-20.69,0,*7D
1506452506.68,52790,15.75,74722.5,0.01,-20.73,-20.79,0,*7F
1506452507.89,52791,15.75,74726.3,0.01,-20.73,-20.79,0,*7E
1506452509.09,52792,15.75,74726.5,0.01,-20.89,-20.89,0,*77
1506452510.31,52793,15.75,74722.8,0.01,-20.79,-20.89,0,*79
1506452511.49,52794,15.75,74728.5,0.05,-20.73,-20.73,0,*75
1506452512.68,52795,15.75,74722.8,0.01,-20.63,-20.73,0,*71
1506452513.88,52796,15.75,74724.5,0.05,-20.59,-20.69,0,*74
1506452515.06,52797,15.75,74722.5,0.01,-20.73,-20.73,0,*72
1506452516.28,52798,15.75,74724.5,0.05,-20.53,-20.69,0,*70
1506452517.47,52799,15.75,74722.3,0.05,-20.59,-20.69,0,*7B
1506452518.65,52800,15.75,74724.5,0.05,-20.73,-20.73,0,*77
1506452519.84,52801,15.75,74728.5,0.01,-20.73,-20.73,0,*72
1506452521.03,52802,15.75,74722.3,0.05,-20.73,-20.73,0,*75
1506452522.22,52803,15.75,74724.0,0.01,-20.89,-20.93,0,*7B
1506452523.43,52804,15.75,74726.8,0.01,-20.73,-20.79,0,*7D
1506452524.62,52805,15.75,74722.3,0.05,-20.73,-20.89,0,*77
1506452525.81,52806,15.75,74720.0,0.01,-20.73,-20.89,0,*70
1506452527.02,52807,15.75,74722.8,0.05,-20.73,-20.83,0,*7F
1506452528.22,52808,15.75,74726.3,0.05,-20.59,-20.69,0,*7C
1506452529.43,52809,15.75,74726.5,0.05,-20.53,-20.69,0,*77
1506452530.62,52810,15.75,74726.3,0.01,-20.59,-20.73,0,*7A
1506452531.81,52811,15.75,74722.8,0.01,-20.73,-20.73,0,*73
1506452533.01,52812,15.75,74726.3,0.01,-20.59,-20.73,0,*78
1506452534.19,52813,15.75,74724.0,0.05,-20.69,-20.69,0,*75
1506452535.38,52814,15.75,74726.5,0.05,-20.43,-20.69,0,*7A
1506452536.6,52815,15.75,74730.0,0.05,-20.53,-20.59,0,*79
1506452537.81,52816,15.75,74726.5,0.05,-20.53,-20.69,0,*79
1506452539.03,52817,15.75,74722.8,0.07,-20.63,-20.69,0,*79
1506452540.28,52818,15.75,74722.8,0.07,-20.53,-20.63,0,*7F
1506452541.47,52819,15.75,74722.8,0.05,-20.69,-20.73,0,*74
1506452542.66,52820,15.75,74726.8,0.05,-20.43,-20.69,0,*7D
1506452543.9,52821,15.75,74726.5,0.07,-20.49,-20.63,0,*7E
1506452545.15,52822,15.75,74726.0,0.07,-20.53,-20.69,0,*7C
1506452546.39,52823,15.75,74724.5,0.07,-20.49,-20.63,0,*7C
1506452547.61,52824,15.75,74722.8,0.09,-20.49,-20.63,0,*75
1506452548.85,52825,15.75,74720.5,0.07,-20.49,-20.69,0,*70
1506452550.09,52826,15.75,74724.0,0.07,-20.49,-20.63,0,*79
1506452551.34,52827,15.75,74726.8,0.07,-20.49,-20.69,0,*72
1506452552.58,52828,15.75,74724.3,0.07,-20.53,-20.69,0,*76
1506452553.77,52829,15.75,74728.3,0.09,-20.63,-20.63,0,*70
1506452555.0,52830,15.75,74724.8,0.09,-20.79,-20.83,0,*7D
1506452556.24,52831,15.75,74726.8,0.09,-20.53,-20.79,0,*71
1506452557.43,52832,15.75,74726.5,0.05,-20.69,-20.73,0,*7D
1506452558.65,52833,15.75,74726.0,0.07,-20.63,-20.69,0,*7F
1506452559.89,52834,15.75,74728.3,0.07,-20.53,-20.69,0,*7B
1506452561.11,52835,15.75,74730.5,0.07,-20.63,-20.63,0,*73
1506452562.33,52836,15.75,74728.3,0.09,-20.53,-20.63,0,*7D
1506452563.55,52837,15.75,74726.3,0.07,-20.39,-20.63,0,*7E
1506452564.74,52838,15.75,74728.0,0.09,-20.63,-20.69,0,*7A
1506452565.98,52839,15.75,74726.8,0.07,-20.53,-20.63,0,*7C
1506452567.23,52840,15.75,74726.8,0.07,-20.49,-20.63,0,*79
1506452568.44,52841,15.75,74730.5,0.05,-20.53,-20.69,0,*7B
1506452569.69,52842,15.75,74730.5,0.07,-20.49,-20.63,0,*7B
1506452570.91,52843,15.75,74726.5,0.07,-20.39,-20.63,0,*7D
1506452572.16,52844,15.75,74728.3,0.07,-20.39,-20.49,0,*72
1506452573.38,52845,15.75,74730.3,0.09,-20.49,-20.63,0,*72
1506452574.62,52846,15.75,74728.8,0.07,-20.49,-20.63,0,*7F
1506452575.84,52847,15.75,74726.3,0.07,-20.39,-20.63,0,*79
1506452577.09,52848,15.75,74724.3,0.07,-20.53,-20.63,0,*7A
1506452578.31,52849,15.75,74722.5,0.07,-20.63,-20.69,0,*72
1506452579.53,52850,15.75,74726.8,0.07,-20.63,-20.69,0,*7A
1506452580.77,52851,15.75,74724.5,0.07,-20.49,-20.63,0,*79
1506452582.01,52852,15.75,74726.3,0.07,-20.35,-20.63,0,*71
1506452583.25,52853,15.75,74720.5,0.07,-20.49,-20.69,0,*71
1506452584.5,52854,15.75,74726.0,0.07,-20.49,-20.63,0,*7C
1506452585.75,52855,15.75,74726.8,0.07,-20.53,-20.63,0,*76
1506452586.95,52856,15.75,74724.0,0.09,-20.69,-20.79,0,*79
1506452588.19,52857,15.75,74728.3,0.07,-20.63,-20.79,0,*7C
1506452589.44,52858,15.75,74734.5,0.07,-20.53,-20.63,0,*7B
1506452590.69,52859,15.75,74730.0,0.07,-20.53,-20.63,0,*7A
1506452591.91,52860,15.75,74730.3,0.07,-20.39,-20.63,0,*7C
1506452593.16,52861,15.75,74724.3,0.07,-20.25,-20.49,0,*78
1506452594.42,52862,15.75,74726.5,0.07,-20.35,-20.53,0,*71
1506452595.66,52863,15.75,74726.5,0.07,-20.35,-20.39,0,*7C
1506452596.93,52864,15.75,74726.0,0.07,-20.35,-20.53,0,*77
1506452598.17,52865,15.75,74724.3,0.07,-20.39,-20.53,0,*7A
1506452599.42,52866,15.75,74722.0,0.07,-20.39,-20.53,0,*79
1506452600.68,52867,15.75,74718.8,0.07,-20.35,-20.53,0,*74
1506452601.9,52868,15.75,74722.3,0.07,-20.25,-20.25,0,*7B
1506452603.11,52869,15.75,74720.5,0.09,-20.19,-20.25,0,*7B
1506452604.38,52870,15.75,74724.5,0.07,-20.35,-20.49,0,*79
1506452605.62,52871,15.75,74726.0,0.09,-20.35,-20.49,0,*76
1506452606.83,52872,15.75,74724.0,0.09,-20.35,-20.39,0,*72
1506452608.09,52873,15.75,74724.5,0.07,-20.35,-20.53,0,*71
1506452609.33,52874,15.75,74716.3,0.09,-20.35,-20.49,0,*73
1506452610.57,52875,15.75,74720.5,0.09,-20.49,-20.53,0,*72
1506452611.81,52876,15.75,74718.5,0.07,-20.25,-20.49,0,*7E
1506452613.06,52877,15.75,74718.0,0.07,-20.39,-20.49,0,*72
1506452614.31,52878,15.75,74720.5,0.07,-20.25,-20.49,0,*70
1506452615.55,52879,15.75,74722.0,0.09,-20.35,-20.49,0,*7E
1506452616.77,52880,15.75,74722.8,0.07,-20.25,-20.39,0,*70
1506452617.99,52881,15.75,74722.3,0.07,-20.25,-20.39,0,*71
1506452619.23,52882,15.75,74716.8,0.07,-20.25,-20.35,0,*7E
1506452620.45,52883,15.75,74722.3,0.07,-20.25,-20.39,0,*73
1506452621.69,52884,15.75,74722.5,0.07,-20.25,-20.35,0,*78
1506452622.95,52885,15.75,74722.8,0.07,-20.19,-20.35,0,*76
1506452624.16,52886,15.75,74722.5,0.09,-20.19,-20.25,0,*7A
1506452625.39,52887,15.75,74722.5,0.11,-20.05,-20.15,0,*4C
1506452626.61,52888,15.75,74726.0,0.11,-19.99,-19.99,0,*42
1506452627.8,52889,15.75,74720.8,0.09,-19.99,-20.05,0,*75
1506452629.0,52890,15.75,74724.3,0.09,-20.05,-20.19,0,*7F
1506452630.22,52891,15.75,74722.5,0.09,-20.19,-20.25,0,*7C
1506452631.43,52892,15.75,74724.8,0.09,-20.25,-20.35,0,*71
1506452632.69,52893,15.75,74724.5,0.11,-20.19,-20.19,0,*48
1506452633.9,52894,15.75,74722.3,0.09,-20.05,-20.19,0,*7B
1506452635.13,52895,15.75,74722.8,0.11,-20.15,-20.05,0,*4F
1506452636.34,52896,15.75,74726.5,0.11,-20.05,-20.05,0,*4D
1506452637.57,52897,15.75,74726.5,0.11,-19.95,-19.95,0,*4C
1506452638.78,52898,15.75,74726.8,0.11,-20.05,-20.05,0,*43
1506452639.99,52899,15.75,74726.8,0.11,-19.99,-20.05,0,*4D
1506452641.2,52900,15.75,74726.5,0.11,-20.05,-19.99,0,*4C
1506452642.42,52901,15.75,74724.3,0.13,-20.05,-20.05,0,*40
1506452643.65,52902,15.75,74724.8,0.11,-20.05,-20.15,0,*40
1506452644.89,52903,15.75,74726.3,0.13,-20.05,-20.15,0,*43
1506452646.1,52904,15.75,74720.5,0.13,-20.05,-19.99,0,*4A
1506452647.32,52905,15.75,74720.0,0.11,-20.05,-20.05,0,*46
1506452648.58,52906,15.75,74722.3,0.13,-20.15,-20.15,0,*47
1506452649.84,52907,15.75,74720.3,0.13,-20.15,-20.15,0,*46
1506452651.09,52908,15.75,74720.0,0.13,-20.15,-20.05,0,*48
1506452652.35,52909,15.75,74716.8,0.13,-20.15,-20.19,0,*44
1506452653.62,52910,15.75,74720.5,0.11,-20.15,-20.19,0,*4E
1506452654.89,52911,15.75,74718.8,0.13,-20.15,-20.19,0,*4D
1506452656.15,52912,15.75,74720.0,0.13,-20.15,-20.15,0,*42
1506452657.41,52913,15.75,74722.3,0.13,-20.15,-20.15,0,*43
1506452658.67,52914,15.75,74722.0,0.11,-20.15,-20.15,0,*46
1506452659.91,52915,15.75,74720.3,0.11,-20.15,-20.05,0,*46
1506452661.15,52916,15.75,74726.0,0.13,-20.15,-20.05,0,*47
1506452662.41,52917,15.75,74720.0,0.11,-20.15,-20.19,0,*49
1506452663.68,52918,15.75,74724.0,0.11,-20.19,-20.19,0,*4A
1506452664.93,52919,15.75,74722.0,0.11,-20.15,-20.15,0,*4B
1506452666.19,52920,15.75,74726.0,0.11,-20.19,-20.15,0,*4D
1506452667.43,52921,15.75,74724.0,0.11,-20.15,-20.05,0,*41
1506452668.69,52922,15.75,74724.0,0.11,-20.15,-20.15,0,*43
1506452669.94,52923,15.75,74724.5,0.11,-20.15,-20.15,0,*42
1506452671.18,52924,15.75,74720.3,0.11,-20.15,-20.05,0,*44
1506452672.44,52925,15.75,74726.0,0.11,-20.15,-20.15,0,*44
1506452673.67,52926,15.75,74722.8,0.11,-20.15,-19.99,0,*49
1506452674.91,52927,15.75,74724.5,0.11,-20.15,-20.05,0,*47
1506452676.12,52928,15.75,74726.5,0.11,-20.05,-19.95,0,*4A
1506452677.34,52929,15.75,74720.8,0.11,-20.05,-19.95,0,*4B
1506452678.55,52930,15.75,74722.0,0.13,-20.05,-19.99,0,*4D
1506452679.78,52931,15.75,74726.3,0.11,-20.05,-19.85,0,*43
1506452681.03,52932,15.75,74722.0,0.13,-19.99,-19.85,0,*4D
1506452682.29,52933,15.75,74726.0,0.11,-20.15,-19.85,0,*40
1506452683.54,52934,15.75,74720.8,0.13,-19.99,-19.85,0,*4B
1506452684.76,52935,15.75,74722.0,0.13,-19.95,-19.71,0,*4D
1506452686.0,52936,15.75,74722.8,0.11,-19.85,-19.71,0,*4D
1506452687.24,52937,15.75,74720.0,0.11,-19.85,-19.71,0,*4C
1506452688.47,52938,15.75,74720.3,0.11,-19.85,-19.71,0,*43
1506452689.71,52939,15.75,74722.8,0.13,-20.05,-19.85,0,*49
1506452690.93,52940,15.75,74724.0,0.13,-20.05,-19.95,0,*46
1506452692.17,52941,15.75,74724.8,0.11,-20.05,-19.85,0,*44
1506452693.41,52942,15.75,74726.5,0.11,-19.95,-19.85,0,*44
1506452694.66,52943,15.75,74724.5,0.13,-19.99,-19.81,0,*4F
1506452695.87,52944,15.75,74724.5,0.11,-19.95,-19.71,0,*49
1506452697.1,52945,15.75,74724.3,0.13,-19.95,-19.71,0,*4A
1506452698.36,52946,15.75,74722.0,0.11,-19.85,-19.65,0,*4F
1506452699.63,52947,15.75,74720.8,0.11,-19.85,-19.65,0,*4E
1506452700.84,52948,15.75,74720.0,0.11,-19.95,-19.71,0,*45
1506452702.06,52949,15.75,74720.8,0.11,-19.99,-19.71,0,*48
1506452703.28,52950,15.75,74724.3,0.13,-19.95,-19.71,0,*4E
1506452704.55,52951,15.75,74722.3,0.13,-20.15,-19.85,0,*46
1506452705.82,52952,15.75,74726.8,0.13,-20.15,-19.85,0,*45
1506452707.01,52953,15.75,74720.8,0.15,-20.09,-19.91,0,*4A
1506452708.25,52954,15.75,74722.0,0.11,-19.99,-19.81,0,*4B
1506452709.49,52955,15.75,74718.3,0.13,-19.99,-19.81,0,*48
1506452710.73,52956,15.75,74720.8,0.11,-20.05,-19.85,0,*42
1506452711.99,52957,15.75,74720.3,0.11,-20.15,-19.85,0,*42
1506452713.23,52958,15.75,74722.0,0.13,-20.05,-19.81,0,*4A
1506452714.46,52959,15.75,74716.5,0.11,-20.05,-19.81,0,*49
1506452715.69,52960,15.75,74720.8,0.11,-20.05,-19.81,0,*43
1506452716.95,52961,15.75,74722.3,0.11,-20.15,-19.85,0,*47
1506452718.18,52962,15.75,74722.3,0.11,-20.05,-19.85,0,*45
1506452719.42,52963,15.75,74720.5,0.11,-20.05,-19.85,0,*44
1506452720.62,52964,15.75,74726.5,0.11,-20.05,-19.71,0,*48
1506452721.88,52965,15.75,74722.0,0.11,-20.15,-19.85,0,*43
1506452723.15,52966,15.75,74724.5,0.13,-20.15,-19.85,0,*42
1506452724.39,52967,15.75,74726.0,0.13,-20.05,-19.81,0,*46
1506452725.6,52968,15.75,74722.8,0.11,-20.05,-19.71,0,*44
1506452726.83,52969,15.75,74724.0,0.11,-20.05,-19.81,0,*4A
1506452728.06,52970,15.75,74726.5,0.11,-20.05,-19.81,0,*42
1506452729.28,52971,15.75,74722.8,0.11,-19.99,-19.71,0,*43
1506452730.51,52972,15.75,74724.0,0.11,-20.05,-19.65,0,*4A
1506452731.73,52973,15.75,74724.8,0.13,-20.05,-19.71,0,*4C
1506452732.96,52974,15.75,74726.3,0.11,-20.15,-19.71,0,*48
1506452734.21,52975,15.75,74722.5,0.11,-19.99,-19.65,0,*42
1506452735.45,52976,15.75,74720.3,0.11,-19.99,-19.65,0,*41
1506452736.7,52977,15.75,74724.5,0.11,-19.99,-19.57,0,*41
1506452737.94,52978,15.75,74726.0,0.11,-19.99,-19.65,0,*4F
1506452739.19,52979,15.75,74722.0,0.11,-19.99,-19.65,0,*4E
1506452740.4,52980,15.75,74720.5,0.11,-19.99,-19.71,0,*4D
1506452741.66,52981,15.75,74724.5,0.11,-20.15,-19.81,0,*4D
1506452742.91,52982,15.75,74728.3,0.11,-19.99,-19.65,0,*4A
1506452744.16,52983,15.75,74726.0,0.13,-19.99,-19.65,0,*49
1506452745.4,52984,15.75,74726.8,0.13,-20.05,-19.65,0,*41
1506452746.64,52985,15.75,74724.3,0.13,-20.05,-19.65,0,*40
1506452747.89,52986,15.75,74722.0,0.13,-19.99,-19.65,0,*4C
1506452749.15,52987,15.75,74720.8,0.13,-19.95,-19.57,0,*40
1506452750.37,52988,15.75,74720.8,0.13,-19.99,-19.51,0,*45
1506452751.62,52989,15.75,74722.3,0.11,-19.99,-19.65,0,*41
1506452752.83,52990,15.75,74720.0,0.11,-19.99,-19.71,0,*4C
1506452754.06,52991,15.75,74722.5,0.13,-19.99,-19.71,0,*4F
1506452755.27,52992,15.75,74722.8,0.13,-20.05,-19.71,0,*43
1506452756.51,52993,15.75,74722.0,0.11,-20.15,-19.71,0,*41
1506452757.72,52994,15.75,74724.5,0.13,-20.05,-19.71,0,*45
1506452758.99,52995,15.75,74722.0,0.13,-20.15,-19.65,0,*40
1506452760.22,52996,15.75,74720.5,0.11,-20.05,-19.65,0,*40
1506452761.47,52997,15.75,74724.0,0.11,-20.05,-19.57,0,*40
1506452762.71,52998,15.75,74720.8,0.11,-20.05,-19.57,0,*4F
1506452763.96,52999,15.75,74720.3,0.11,-19.95,-19.57,0,*4D
1506452765.2,53000,15.75,74722.3,0.11,-19.99,-19.65,0,*48
1506452766.42,53001,15.75,74726.0,0.11,-19.95,-19.51,0,*42
1506452767.66,53002,15.75,74724.8,0.13,-19.81,-19.37,0,*46
1506452768.9,53003,15.75,74722.0,0.11,-19.85,-19.51,0,*41
1506452770.15,53004,15.75,74726.3,0.13,-19.95,-19.57,0,*43
1506452771.4,53005,15.75,74726.3,0.11,-19.99,-19.65,0,*4D
1506452772.64,53006,15.75,74724.3,0.11,-19.99,-19.65,0,*4E
1506452773.88,53007,15.75,74724.8,0.11,-20.05,-19.57,0,*41
1506452775.13,53008,15.75,74724.3,0.11,-19.99,-19.65,0,*40
1506452776.38,53009,15.75,74726.3,0.13,-19.99,-19.65,0,*43
1506452777.62,53010,15.75,74724.3,0.11,-19.99,-19.65,0,*49
1506452778.86,53011,15.75,74724.5,0.11,-19.99,-19.65,0,*48
1506452780.11,53012,15.75,74726.5,0.13,-20.05,-19.57,0,*47
1506452781.36,53013,15.75,74722.8,0.11,-19.99,-19.57,0,*4B
1506452782.61,53014,15.75,74724.3,0.11,-19.95,-19.57,0,*40
1506452783.86,53015,15.75,74726.3,0.13,-19.95,-19.41,0,*44
1506452785.08,53016,15.75,74726.8,0.11,-19.99,-19.51,0,*48
1506452786.3,53017,15.75,74726.8,0.13,-19.99,-19.51,0,*4B
1506452787.55,53018,15.75,74724.5,0.11,-19.95,-19.41,0,*4B
1506452788.8,53019,15.75,74726.8,0.11,-19.99,-19.57,0,*41
1506452790.02,53020,15.75,74722.8,0.11,-19.95,-19.51,0,*41
1506452791.27,53021,15.75,74726.0,0.13,-19.99,-19.57,0,*48
1506452792.55,53022,15.75,74726.0,0.13,-20.15,-19.57,0,*45
1506452793.76,53023,15.75,74730.3,0.13,-20.05,-19.51,0,*43
1506452795.0,53024,15.75,74726.5,0.11,-20.15,-19.51,0,*47
1506452796.2,53025,15.75,74726.0,0.11,-20.05,-19.51,0,*47
1506452797.42,53026,15.75,74728.3,0.13,-20.05,-19.51,0,*46
1506452798.68,53027,15.75,74728.0,0.11,-20.15,-19.65,0,*43
1506452799.9,53028,15.75,74724.8,0.13,-19.95,-19.51,0,*4B
1506452801.13,53029,15.75,74722.5,0.13,-19.95,-19.51,0,*4A
1506452802.37,53030,15.75,74724.8,0.11,-19.95,-19.41,0,*41
1506452803.64,53031,15.75,74728.5,0.11,-20.15,-19.57,0,*45
1506452804.88,53032,15.75,74722.0,0.13,-20.05,-19.41,0,*42
1506452806.13,53033,15.75,74722.0,0.13,-19.99,-19.41,0,*4C
1506452807.35,53034,15.75,74726.5,0.11,-19.95,-19.51,0,*44
1506452808.61,53035,15.75,74726.0,0.11,-19.81,-19.27,0,*41
1506452809.84,53036,15.75,74726.8,0.11,-19.81,-19.13,0,*45
1506452811.1,53037,15.75,74722.8,0.13,-19.81,-19.23,0,*45
1506452812.34,53038,15.75,74728.3,0.13,-19.85,-19.37,0,*4B
1506452813.59,53039,15.75,74724.8,0.13,-19.85,-19.37,0,*4A
1506452814.84,53040,15.75,74724.3,0.13,-19.95,-19.41,0,*44
1506452816.09,53041,15.75,74728.8,0.13,-19.85,-19.37,0,*45
1506452817.33,53042,15.75,74722.8,0.11,-19.95,-19.41,0,*44
1506452818.55,53043,15.75,74720.5,0.13,-19.99,-19.51,0,*4A
1506452819.8,53044,15.75,74722.8,0.13,-19.95,-19.41,0,*40
1506452821.02,53045,15.75,74724.0,0.11,-19.99,-19.51,0,*4E
1506452822.26,53046,15.75,74724.0,0.13,-20.05,-19.41,0,*41
1506452823.47,53047,15.75,74720.5,0.11,-20.05,-19.51,0,*43
1506452824.72,53048,15.75,74722.3,0.13,-19.95,-19.41,0,*4C
1506452825.94,53049,15.75,74726.8,0.11,-19.99,-19.51,0,*42
1506452827.19,53050,15.75,74720.3,0.13,-19.99,-19.41,0,*49
1506452828.44,53051,15.75,74726.0,0.13,-19.99,-19.41,0,*48
1506452829.68,53052,15.75,74724.8,0.11,-19.95,-19.41,0,*45
1506452830.9,53053,15.75,74724.8,0.11,-19.95,-19.37,0,*45
1506452832.15,53054,15.75,74726.0,0.13,-19.99,-19.41,0,*4D
1506452833.4,53055,15.75,74726.0,0.11,-19.99,-19.41,0,*4E
1506452834.61,53056,15.75,74724.0,0.11,-19.99,-19.51,0,*4C
1506452835.86,53057,15.75,74722.5,0.11,-19.99,-19.41,0,*4C
1506452837.11,53058,15.75,74726.0,0.13,-19.95,-19.41,0,*4D
1506452838.32,53059,15.75,74724.3,0.11,-19.95,-19.51,0,*4F
1506452839.57,53060,15.75,74728.5,0.13,-19.99,-19.41,0,*4A
1506452840.82,53061,15.75,74728.5,0.13,-19.95,-19.27,0,*47
1506452842.04,53062,15.75,74728.0,0.11,-19.95,-19.37,0,*47
1506452843.31,53063,15.75,74728.5,0.13,-19.85,-19.27,0,*44
1506452844.56,53064,15.75,74724.8,0.13,-19.85,-19.37,0,*42
1506452845.78,53065,15.75,74730.5,0.13,-19.99,-19.51,0,*4E
1506452847.02,53066,15.75,74734.5,0.11,-20.05,-19.41,0,*41
1506452848.27,53067,15.75,74726.8,0.11,-19.81,-19.27,0,*46
1506452849.51,53068,15.75,74730.0,0.11,-19.85,-19.37,0,*4C
1506452850.74,53069,15.75,74732.0,0.13,-19.99,-19.37,0,*42
1506452851.99,53070,15.75,74728.8,0.13,-19.95,-19.27,0,*47
1506452853.23,53071,15.75,74724.3,0.11,-19.95,-19.27,0,*44
1506452854.47,53072,15.75,74726.8,0.13,-19.81,-19.13,0,*47
1506452855.69,53073,15.75,74730.0,0.11,-19.95,-19.37,0,*47
1506452856.94,53074,15.75,74728.3,0.11,-19.95,-19.27,0,*41
1506452858.15,53075,15.75,74730.8,0.11,-19.95,-19.37,0,*41
1506452859.38,53076,15.75,74730.5,0.13,-19.95,-19.37,0,*40
1506452860.61,53077,15.75,74724.3,0.13,-19.95,-19.37,0,*41
1506452861.86,53078,15.75,74726.5,0.13,-19.95,-19.27,0,*4F
1506452863.08,53079,15.75,74726.3,0.11,-19.95,-19.37,0,*4D
1506452864.34,53080,15.75,74728.0,0.13,-19.81,-19.27,0,*4D
1506452865.59,53081,15.75,74722.3,0.11,-19.81,-19.23,0,*4A
1506452866.84,53082,15.75,74726.3,0.13,-19.81,-19.13,0,*48
1506452868.07,53083,15.75,74724.8,0.11,-19.85,-19.13,0,*4F
1506452869.33,53084,15.75,74726.0,0.13,-19.81,-19.23,0,*4D
1506452870.59,53085,15.75,74724.8,0.13,-19.81,-19.23,0,*4C
1506452871.83,53086,15.75,74728.0,0.13,-19.65,-19.07,0,*43
1506452873.07,53087,15.75,74726.0,0.13,-19.65,-19.07,0,*42
1506452874.29,53088,15.75,74720.8,0.11,-19.71,-19.13,0,*4F
1506452875.51,53089,15.75,74724.5,0.13,-19.71,-19.07,0,*49
1506452876.75,53090,15.75,74730.0,0.13,-19.81,-19.13,0,*4B
1506452878.01,53091,15.75,74728.5,0.11,-19.85,-19.23,0,*4F
1506452879.26,53092,15.75,74728.3,0.11,-19.85,-19.23,0,*4C
1506452880.5,53093,15.75,74728.8,0.11,-19.81,-19.13,0,*4A
1506452881.72,53094,15.75,74726.8,0.11,-19.71,-19.13,0,*42
1506452882.96,53095,15.75,74728.5,0.13,-19.81,-19.13,0,*4E
1506452884.2,53096,15.75,74730.5,0.11,-19.85,-19.13,0,*4B
1506452885.42,53097,15.75,74730.5,0.11,-19.71,-19.13,0,*41
1506452886.68,53098,15.75,74730.0,0.11,-19.85,-19.27,0,*42
1506452887.9,53099,15.75,74732.0,0.11,-19.71,-19.13,0,*4F
1506452889.17,53100,15.75,74734.8,0.13,-19.85,-19.27,0,*40
1506452890.4,53101,15.75,74730.8,0.11,-19.81,-19.13,0,*40
1506452891.64,53102,15.75,74730.8,0.11,-19.81,-19.13,0,*43
1506452892.85,53103,15.75,74728.0,0.15,-19.65,-19.07,0,*49
1506452894.09,53104,15.75,74730.0,0.13,-19.65,-19.07,0,*48
1506452895.33,53105,15.75,74728.3,0.13,-19.65,-19.03,0,*4D
1506452896.57,53106,15.75,74728.3,0.11,-19.65,-19.07,0,*48
1506452897.84,53107,15.75,74728.3,0.13,-19.65,-18.93,0,*47
1506452899.12,53108,15.75,74728.3,0.13,-19.57,-18.93,0,*49